[[{"header":{"parameterUnit":"m.s-1","parameterCategory":1,"la1":30.2991,"la2":30.254,"lo1":-89.0895,"lo2":-89.0444,"dy":0.0017,"dx":0.0017,"nx":28,"ny":28,"refTime":"2024-08-28T03:00:00:Z","depth":0,"parameterNumber":2,"parameterNumberName":"U-component_of_WINDS"},"data":[0,0,0,0,0,0,0,0,0,0,0,0,0,0,0,0,0,0,0,0,0,0,0,0,0,0,0,0,0,0,0,0,0,0,0,0,0,0,0,0,0,0,0,0,0,0,0,0,0,0,0,0,0,0,0,0,0,0,-4.8404,-4.8404,0,-4.8365,-4.8364,-4.8364,-4.8258,-4.8256,-4.8253,-4.8251,-4.8212,-4.8214,-4.8215,0,0,0,0,0,0,0,0,0,0,0,0,0,-4.8391,-4.8392,-4.8404,-4.8404,-4.8403,-4.8365,-4.8364,-4.8364,-4.8258,-4.8255,-4.8253,-4.825,-4.8212,-4.8213,-4.8215,0,0,0,0,0,0,0,0,0,0,0,0,0,-4.8379,-4.8392,-4.8404,-4.8346,-4.834,-4.8365,-4.8364,-4.8364,-4.8259,-4.8255,-4.8252,-4.8249,-4.8212,-4.8213,-4.8215,-4.8293,0,0,-4.822,-4.8221,0,0,0,0,0,0,0,0,-4.838,-4.8379,-4.8355,-4.835,-4.8344,-4.8313,-4.8345,-4.834,-4.826,-4.829,-4.8251,-4.8247,-4.8249,-4.8247,-4.8247,-4.8292,-4.829,-4.822,-4.8221,-4.8222,-4.8222,0,0,0,0,0,0,0,-4.8381,-4.8381,-4.8388,-4.8355,-4.8348,-4.8323,-4.8317,-4.8344,-4.8289,-4.8287,-4.8279,-4.8276,-4.8245,-4.8246,-4.8246,-4.8289,-4.822,-4.8221,-4.8222,-4.8223,-4.8397,-4.8401,0,0,0,0,0,0,-4.839,-4.8382,-4.839,-4.8387,-4.8354,-4.8326,-4.8319,-4.8326,-4.8288,-4.8279,-4.8279,-4.8271,-4.8245,-4.8244,-4.8244,-4.8333,-4.8222,-4.8223,-4.8224,-4.8394,-4.8398,-4.8402,0,0,0,0,0,0,-4.839,-4.8391,-4.8391,-4.8382,-4.8381,-4.8329,-4.8338,-4.8327,-4.8328,-4.8282,-4.8272,-4.8289,-4.8242,-4.8241,-4.8282,-4.833,-4.8224,-4.8226,-4.839,-4.8395,-4.84,-4.8512,0,0,0,0,0,0,-4.839,-4.8392,-4.842,-4.8384,-4.8381,-4.8429,-4.8341,-4.8329,-4.8331,-4.832,-4.829,-4.8281,-4.8239,-4.828,-4.8284,-4.833,-4.8227,-4.8385,-4.8392,-4.8398,-4.8503,-4.852,-4.8535,0,0,0,0,0,-4.839,-4.8453,-4.8422,-4.8424,-4.8416,-4.8432,-4.8431,-4.8381,-4.8335,-4.8363,-4.8335,-4.8282,-4.8325,-4.8285,-4.8288,-4.8336,-4.8382,-4.839,-4.8398,-4.8496,-4.8517,-4.8534,0,0,0,0,0,0,-4.8496,-4.8447,-4.8412,-4.8466,-4.8454,-4.8414,-4.8448,-4.8404,-4.8405,-4.8395,-4.8334,-4.8328,-4.8377,-4.8361,-4.8318,-4.8411,-4.8345,-4.8354,-4.8419,-4.8438,-4.8453,-4.8455,-4.8228,0,0,0,0,0,-4.8526,-4.8543,-4.85,-4.8551,-4.8547,-4.85,-4.8505,-4.8468,-4.8453,-4.8447,-4.8421,-4.841,-4.8421,-4.8429,-4.8436,-4.8502,-4.8494,-4.8537,-4.8553,-4.8566,-4.8573,-4.8607,-4.8625,-4.8429,-4.8429,-4.8429,0,0,-4.8587,-4.8563,-4.8577,-4.8572,-4.8558,-4.8578,-4.8496,-4.852,-4.8533,-4.8451,-4.8487,-4.8469,-4.8452,-4.8505,-4.8528,-4.8493,-4.8626,-4.8576,-4.8587,-4.8587,-4.8617,-4.8636,-4.8653,-4.8435,-4.8434,-4.8433,0,0,-4.8708,-4.8692,-4.8733,-4.8722,-4.8703,-4.8671,-4.8681,-4.8649,-4.8633,-4.8669,-4.8607,-4.8625,-4.8644,-4.8635,-4.8633,-4.8755,-4.8707,-4.876,-4.884,-4.8874,-4.8889,-4.8902,-4.8945,-4.8961,-4.8768,-4.8768,-4.8769,0,-4.8787,-4.8813,-4.876,-4.8788,-4.8788,-4.8715,-4.8757,-4.8749,-4.8734,-4.8736,-4.8698,-4.8722,-4.8706,-4.8756,-4.8786,-4.8788,-4.8798,-4.8761,-4.8891,-4.8904,-4.8916,-4.8955,-4.8971,-4.8775,-4.8774,-4.8773,-4.8773,0,-4.891,-4.8929,-4.8965,-4.8952,-4.8956,-4.8992,-4.8945,-4.8956,-4.892,-4.8893,-4.8931,-4.891,-4.8912,-4.8922,-4.8887,-4.8968,-4.8947,-4.8902,-4.8834,-4.8941,-4.8978,-4.8992,-4.8784,-4.8782,-4.878,-4.8778,0,0,-4.9092,-4.9052,-4.9066,-4.9059,-4.9035,-4.9049,-4.9082,-4.9084,-4.9095,-4.9088,-4.9114,-4.9134,-4.9092,-4.909,-4.9054,-4.9084,-4.9181,-4.9034,-4.9033,-4.9061,-4.9269,-4.9301,-4.932,-4.9151,-4.9154,-4.9156,-4.927,0,-4.9205,-4.9257,-4.9212,-4.9273,-4.9291,-4.9224,-4.9253,-4.9242,-4.9219,-4.9231,-4.9206,-4.9221,-4.9165,-4.9163,-4.919,-4.9164,-4.9222,-4.9155,-4.9174,-4.9175,-4.9177,-4.9339,-4.9373,-4.9481,-4.9284,-4.9286,-4.9288,0,-4.9342,-4.9342,-4.9404,-4.9377,-4.9383,-4.9409,-4.9408,-4.9421,-4.9408,-4.9389,-4.9389,-4.9345,-4.9377,-4.9314,-4.9356,-4.9312,-4.9318,-4.9307,-4.931,-4.9307,-4.9236,-4.9338,-4.9514,-4.953,-4.931,-4.9308,-4.9306,0,-4.9467,-4.9483,-4.9522,-4.9519,-4.9489,-4.9509,-4.9498,-4.9481,-4.9486,-4.9486,-4.9488,-4.9493,-4.9495,-4.95,-4.9459,-4.9417,-4.9507,-4.944,-4.9492,-4.9493,-4.9511,-4.951,-4.9688,-4.952,-4.9519,-4.9519,-4.9519,0,-4.9595,-4.9636,-4.9578,-4.9602,-4.9646,-4.9596,-4.9641,-4.9623,-4.961,-4.963,-4.9574,-4.9595,-4.9541,-4.9556,-4.9525,-4.9565,-4.9567,-4.9553,-4.9543,-4.9556,-4.9557,-4.9556,-4.9547,-4.9523,-4.9522,-4.9522,-4.9521,0,-4.974,-4.9703,-4.9741,-4.9711,-4.9704,-4.9738,-4.9712,-4.9734,-4.9708,-4.9735,-4.9738,-4.9698,-4.9714,-4.9675,-4.9684,-4.9663,-4.972,-4.97,-4.9724,-4.9717,-4.977,-4.9765,-4.9951,-4.9973,-4.9794,-4.9796,-4.9797,0,-4.9823,-4.9853,-4.9826,-4.9835,-4.9827,-4.9843,-4.9848,-4.9801,-4.9809,-4.9798,-4.9821,-4.9832,-4.9837,-4.9865,-4.9837,-4.9845,-4.9823,-4.9888,-4.9824,-4.9836,-4.9822,-4.9819,-4.9822,-4.99,-4.9903,-4.9904,-4.9906,0,-4.9974,-4.9955,-4.9963,-4.9967,-4.9974,-4.9974,-4.9971,-4.9982,-4.9933,-4.9944,-4.9959,-4.9964,-4.9974,-4.9986,-4.9988,-4.9976,-4.9933,-4.9927,-4.9939,-4.9951,-4.9962,-4.9955,-4.9758,-4.9922,-4.992,-4.9919,-4.9918,-4.9918,-5.0088,-5.0112,-5.0097,-5.0109,-5.0102,-5.0101,-5.012,-5.0098,-5.0109,-5.0113,-5.0086,-5.0107,-5.0096,-5.0094,-5.0088,-5.0104,-5.0074,-5.0092,-5.0096,-5.01,-5.0108,-4.9963,-5.0105,-5.0104,-5.0104,-5.0103,-5.0103,0,-5.0234,-5.0222,-5.0234,-5.0231,-5.0242,-5.0202,-5.0197,-5.0208,-5.0227,-5.022,-5.0227,-5.0245,-5.0257,-5.0232,-5.024,-5.0258,-5.0238,-5.0261,-5.0258,-5.0256,-5.0135,-5.0123,-5.0277,-5.0277,-5.0277,-5.0277,-5.0277,-5.0277,-5.0311,-5.0349,-5.0329,-5.0363,-5.0351,-5.037,-5.0371,-5.037,-5.0364,-5.0387,-5.0396,-5.038,-5.0366,-5.0373,-5.0382,-5.0375,-5.0379,-5.0409,-5.0394,-5.0281,-5.0264,-5.0248,-5.0236,-5.0411,-5.0411,-5.0513,-5.0514,-5.0514]},{"header":{"parameterUnit":"m.s-1","parameterCategory":1,"la1":30.2991,"la2":30.254,"lo1":-89.0895,"lo2":-89.0444,"dy":0.0017,"dx":0.0017,"nx":28,"ny":28,"refTime":"2024-08-28T03:00:00:Z","depth":0,"parameterNumber":3,"parameterNumberName":"V-component_of_WINDS"},"data":[0,0,0,0,0,0,0,0,0,0,0,0,0,0,0,0,0,0,0,0,0,0,0,0,0,0,0,0,0,0,0,0,0,0,0,0,0,0,0,0,0,0,0,0,0,0,0,0,0,0,0,0,0,0,0,0,0,0,3.984,3.9841,0,3.9926,3.9927,3.9928,4.0,4.0,4.0001,4.0002,4.0083,4.0085,4.0086,0,0,0,0,0,0,0,0,0,0,0,0,0,3.9734,3.9736,3.984,3.9841,3.9843,3.9926,3.9927,3.9928,3.9999,4.0,4.0001,4.0002,4.0083,4.0085,4.0086,0,0,0,0,0,0,0,0,0,0,0,0,0,3.9796,3.9736,3.984,3.9888,3.9893,3.9926,3.9927,3.9929,3.9999,4.0,4.0002,4.0003,4.0082,4.0084,4.0087,4.0076,0,0,4.0093,4.0094,0,0,0,0,0,0,0,0,3.9792,3.98,3.988,3.9885,3.9891,3.9954,3.992,3.9978,3.9999,3.9959,4.0002,4.0003,4.0039,4.0045,4.0058,4.008,4.0084,4.0093,4.0095,4.0096,4.0096,0,0,0,0,0,0,0,3.9788,3.9796,3.9874,3.9881,3.9888,3.9904,3.9914,3.9931,3.9991,3.9962,3.9968,3.9977,4.0042,4.0056,4.006,4.0085,4.0093,4.0095,4.0096,4.0097,4.0104,4.0103,0,0,0,0,0,0,3.9777,3.9792,3.9871,3.9877,3.9844,3.9905,3.9916,3.9932,3.9991,4.0001,3.9976,3.998,4.0051,4.0058,4.0063,4.0056,4.0096,4.0098,4.0099,4.0105,4.0104,4.0103,0,0,0,0,0,0,3.9774,3.9783,3.9868,3.9836,3.9848,3.9906,3.9923,3.9933,3.9947,4.0002,4.0012,3.998,4.0053,4.006,4.0073,4.006,4.0099,4.01,4.0107,4.0105,4.0103,4.0041,0,0,0,0,0,0,3.9771,3.9782,3.9779,3.9836,3.985,3.9877,3.9922,3.9934,3.9951,3.9957,4.0007,4.0017,4.0054,4.007,4.0075,4.0064,4.0102,4.0108,4.0106,4.0104,4.0044,4.0037,4.0031,0,0,0,0,0,3.9767,3.9757,3.9779,3.9788,3.9848,3.9877,3.9884,3.9929,3.995,3.9947,3.9983,4.0015,4.0061,4.007,4.0077,4.0066,4.0109,4.0106,4.0104,4.0047,4.0038,4.0031,0,0,0,0,0,0,3.9694,3.9765,3.979,3.9798,3.9831,3.9889,3.9887,3.9918,3.9945,3.9949,4.0002,4.0013,4.002,4.0044,4.0054,4.006,4.0089,4.0088,4.0043,4.0036,4.0029,4.0023,4.0104,0,0,0,0,0,3.968,3.9699,3.9759,3.976,3.9775,3.9828,3.9842,3.9874,3.991,3.9923,3.996,3.9991,4.0013,4.0026,4.0049,4.0049,4.006,4.0044,4.0038,4.0032,4.003,4.0032,4.0026,4.0095,4.0095,4.0095,0,0,3.9649,3.969,3.9698,3.9746,3.9776,3.9793,3.9839,3.9855,3.9868,3.9925,3.994,3.9968,4.0007,4.0014,4.0018,4.0034,4.0014,4.0029,4.0024,4.0025,4.0029,4.0023,4.0017,4.0093,4.0093,4.0093,0,0,3.9601,3.9634,3.964,3.9669,3.9714,3.975,3.9751,3.9804,3.9826,3.9843,3.9886,3.9902,3.9938,3.9964,3.9982,3.9947,3.9978,3.9953,3.9918,3.992,3.9915,3.991,3.9898,3.9893,3.9951,3.9951,3.9951,0,3.9556,3.9586,3.9638,3.9652,3.9672,3.9728,3.9733,3.9758,3.9807,3.9819,3.9837,3.9885,3.9915,3.9929,3.9921,3.9934,3.9936,3.9947,3.9912,3.9908,3.9904,3.9893,3.9888,3.9948,3.9948,3.9949,3.9949,0,3.9529,3.9549,3.9548,3.9597,3.9617,3.9626,3.9678,3.9692,3.9723,3.9756,3.9773,3.9811,3.9843,3.9849,3.9878,3.9868,3.9876,3.9902,3.9933,3.9894,3.9884,3.988,3.9943,3.9944,3.9945,3.9946,0,0,3.9436,3.9516,3.9515,3.9539,3.9593,3.9609,3.9621,3.9655,3.9666,3.9698,3.9709,3.974,3.9765,3.9786,3.9819,3.982,3.9791,3.9846,3.9848,3.9835,3.9782,3.9762,3.9756,3.9813,3.9812,3.9811,3.9779,0,3.9398,3.9425,3.9473,3.9484,3.9503,3.9557,3.9568,3.9602,3.9634,3.9653,3.9688,3.9709,3.9741,3.9754,3.9758,3.9794,3.9781,3.9797,3.9822,3.9822,3.981,3.9751,3.973,3.9697,3.9775,3.9775,3.9774,0,3.9356,3.9388,3.9402,3.9457,3.9467,3.9476,3.9512,3.9531,3.957,3.9594,3.9618,3.9655,3.967,3.9698,3.9719,3.9729,3.9742,3.9761,3.9761,3.9765,3.9795,3.9752,3.9688,3.9682,3.9769,3.9769,3.977,0,3.9287,3.9333,3.9348,3.9367,3.9432,3.9437,3.9464,3.9505,3.9523,3.9554,3.9566,3.9597,3.9614,3.9637,3.9681,3.9698,3.9697,3.9729,3.9716,3.9715,3.9712,3.9712,3.9648,3.9722,3.9722,3.9722,3.9722,0,3.9238,3.9244,3.9319,3.9327,3.9336,3.9391,3.9397,3.9429,3.9466,3.9481,3.9529,3.9542,3.96,3.9619,3.9654,3.9666,3.9673,3.9692,3.97,3.9687,3.9685,3.9696,3.9699,3.9721,3.9721,3.9721,3.9721,0,3.9162,3.9212,3.9232,3.9293,3.9309,3.9312,3.9364,3.9374,3.941,3.9429,3.9436,3.9492,3.9517,3.9564,3.9602,3.9625,3.963,3.9646,3.9617,3.9623,3.9607,3.9608,3.9548,3.9543,3.9619,3.9618,3.9617,0,3.9127,3.9134,3.9197,3.9212,3.9238,3.9261,3.9281,3.9335,3.9353,3.94,3.9404,3.9435,3.9461,3.9499,3.9542,3.9572,3.9588,3.9565,3.9593,3.958,3.9588,3.9587,3.9588,3.9559,3.9557,3.9557,3.9556,0,3.9061,3.9086,3.9114,3.915,3.9173,3.9204,3.9237,3.9246,3.9307,3.9325,3.9353,3.9374,3.9415,3.9444,3.948,3.9506,3.9541,3.9547,3.9546,3.9532,3.9515,3.9524,3.96,3.9548,3.9549,3.9549,3.955,3.955,3.9005,3.9014,3.906,3.9089,3.9121,3.9151,3.9165,3.9203,3.9229,3.9268,3.9298,3.9323,3.9364,3.9417,3.9442,3.9462,3.9478,3.9475,3.9475,3.9473,3.9468,3.9512,3.9468,3.9469,3.9469,3.9469,3.9469,0,3.8941,3.8974,3.9001,3.9047,3.907,3.9104,3.9143,3.9159,3.9182,3.9219,3.9245,3.9278,3.9307,3.9353,3.9385,3.9392,3.9409,3.9399,3.9399,3.9404,3.9452,3.945,3.9385,3.9385,3.9385,3.9385,3.9385,3.9385,3.891,3.8928,3.8959,3.8992,3.9025,3.9053,3.9072,3.91,3.913,3.9165,3.919,3.9221,3.9261,3.9298,3.9325,3.9338,3.9347,3.9332,3.935,3.9393,3.9401,3.9408,3.9407,3.9334,3.9334,3.9301,3.9301,3.93]}]]